Portada
METAR-TAF:

METAR-TAF

Aeropuertos :

Castellón de la Plana, España

Aeropuerto de Castellón-Costa Azahar

latitud: 40-12-35N, longitud: 0-04-11E, altitud: 360 m

Observación

El informe se hizo hace 28 minutos, a las 02:30 UTC
Viento 9 kt del norte-noroeste, variando entre oeste-noroeste y norte
Temperatura 10°C
Humedad 43%
Presión 1023 hPa
Visibilidad 10 km o más
sin nubes por debajo de 1500 m y sin presencia de cumulonimbus.

METAR: LECH 180230Z AUTO 33009KT 300V010 CAVOK 10/M02 Q1023

Hora: 03:58 (02:58 UTC)


TAF: falta

Observaciones y pronósticos meteorológicos de más de 4000 aeropuertos (mensajes METAR y TAF).

Los puntos amarillos y rojos representan las estaciones disponibles.

Ponga el ratón en el punto deseado para ver el nombre de la estación.

Haga clic para ver las observaciones y los pronósticos meteorológicos.

Para cambiar el mapa : haga clic en los botones verdes con una cruz de color negro para hacer un zoom, en el botón verde con un guión para alejar o en las flechas verdes para mapas adyacentes.


METAR-TAF: